Weather History for Bolton Field, OH

Change the Weather History Date:

Sunday, January 20, 2013

  Actual Average Record
Temperature  
Mean Temperature 32 °F -  
Max Temperature 44 °F 32 °F 55 °F (2006)
Min Temperature 22 °F 19 °F 1 °F (2008)
Degree Days  
Heating Degree Days 32    
Moisture  
Dew Point 18 °F    
Average Humidity 56    
Maximum Humidity 67    
Minimum Humidity 42    
Precipitation  
Precipitation 0.00 in - - ()
Sea Level Pressure  
Sea Level Pressure 30.04 in    
Wind  
Wind Speed 16 mph (West)    
Max Wind Speed 28 mph    
Max Gust Speed 38 mph    
Visibility 10 miles    
Events      
Averages and records for this station are not official NWS values.
T = Trace of Precipitation, MM = Missing Value Source: NWS Daily Summary

Daily Weather History Graph

Daily Weather History Graph

Search for Another Location

Airport:

Trip Planner

Search our weather history database for the weather conditions in past years. The results will help you decide how hot, cold, wet, or windy it might be!

Date:

Astronomy

Jan. 20, 2013 Rise Set
Actual Time 7:49 AM EST 5:38 PM EST
Civil Twilight 7:20 AM EST 6:07 PM EST
Nautical Twilight 6:47 AM EST 6:40 PM EST
Astronomical Twilight 6:15 AM EST 7:12 PM EST
Moon 12:38 PM EST (1/20) 2:21 AM EST (1/20)
Length of Visible Light 10h 47m
Length of Day
9h 48m
Waxing Gibbous, 66% of the Moon is Illuminated
Jan 20
Waxing Gibbous
Jan 26
Full
Feb 3
Last Quarter
Feb 10
New
Feb 17
First Quarter

Hourly Weather History & Observations

Time (EST) Temp. Windchill Dew Point Humidity Pressure Visibility Wind Dir Wind Speed Gust Speed Precip Events Conditions
12:15 AM 43.0 °F 34.5 °F 29.3 °F 59% 29.86 in 10.0 mi SSW 19.6 mph 27.6 mph N/A   Clear
12:35 AM 42.8 °F 35.1 °F 29.7 °F 60% 29.85 in 10.0 mi SW 16.1 mph 25.3 mph N/A   Clear
1:15 AM 43.0 °F 34.2 °F 30.0 °F 60% 29.85 in 10.0 mi SW 20.7 mph 29.9 mph N/A   Clear
1:35 AM 42.8 °F 34.5 °F 30.2 °F 61% 29.85 in 10.0 mi SW 18.4 mph 23.0 mph N/A   Clear
1:55 AM 42.8 °F 34.8 °F 30.6 °F 62% 29.85 in 10.0 mi SW 17.3 mph 25.3 mph N/A   Clear
2:15 AM 42.3 °F 34.4 °F 30.7 °F 64% 29.85 in 10.0 mi SW 16.1 mph 23.0 mph N/A   Clear
2:35 AM 41.9 °F 34.0 °F 31.1 °F 66% 29.86 in 10.0 mi SW 16.1 mph 20.7 mph N/A   Clear
2:55 AM 41.5 °F 34.6 °F 31.5 °F 67% 29.87 in 10.0 mi SW 12.7 mph 21.9 mph N/A   Clear
3:15 AM 42.3 °F 34.8 °F 32.2 °F 67% 29.89 in 10.0 mi WSW 15.0 mph 20.7 mph N/A   Scattered Clouds
3:35 AM 43.7 °F 36.0 °F 33.1 °F 66% 29.89 in 10.0 mi WSW 17.3 mph 23.0 mph N/A   Overcast
3:55 AM 43.9 °F 38.3 °F 33.4 °F 67% 29.90 in 10.0 mi West 10.4 mph 20.7 mph N/A   Overcast
4:15 AM 42.8 °F 35.4 °F 32.0 °F 66% 29.91 in 10.0 mi West 15.0 mph 27.6 mph N/A   Overcast
4:35 AM 41.5 °F 33.2 °F 30.2 °F 64% 29.91 in 10.0 mi West 17.3 mph 26.5 mph N/A   Scattered Clouds
4:55 AM 41.0 °F 31.6 °F 23.9 °F 51% 29.92 in 10.0 mi West 20.7 mph 38.0 mph N/A   Clear
5:15 AM 39.2 °F 27.8 °F 22.1 °F 50% 29.94 in 10.0 mi West 27.6 mph 36.8 mph N/A   Clear
5:35 AM 37.4 °F 29.8 °F 22.1 °F 54% 29.94 in 10.0 mi West 11.5 mph 27.6 mph N/A   Clear
5:55 AM 36.3 °F 26.8 °F 21.9 °F 56% 29.96 in 10.0 mi WSW 16.1 mph 26.5 mph N/A   Clear
6:15 AM 35.1 °F 23.8 °F 15.3 °F 44% 29.98 in 10.0 mi West 20.7 mph 31.1 mph N/A   Clear
6:35 AM 32.9 °F 21.3 °F 11.8 °F 42% 29.99 in 10.0 mi West 19.6 mph 26.5 mph N/A   Clear
6:55 AM 31.8 °F 19.3 °F 12.7 °F 45% 30.01 in 10.0 mi West 21.9 mph 29.9 mph N/A   Clear
7:15 AM 30.7 °F 20.9 °F 13.6 °F 49% 30.03 in 10.0 mi West 12.7 mph 24.2 mph N/A   Clear
7:25 AM 30.2 °F 20.2 °F 14.0 °F 51% 30.04 in 10.0 mi West 12.7 mph 18.4 mph N/A   Clear
7:47 AM 28.4 °F 17.5 °F 15.8 °F 59% 30.04 in 10.0 mi West 13.8 mph 21.9 mph N/A   Clear
8:47 AM 28.4 °F 17.0 °F 15.8 °F 59% 30.09 in 10.0 mi West 15.0 mph 26.5 mph N/A   Clear
9:47 AM 28.4 °F 16.6 °F 15.8 °F 59% 30.14 in 10.0 mi WNW 16.1 mph 24.2 mph N/A   Scattered Clouds
10:47 AM 28.4 °F 18.0 °F 14.0 °F 55% 30.18 in 10.0 mi West 12.7 mph 20.7 mph N/A   Clear
11:50 AM 28.4 °F 18.5 °F 12.2 °F 51% 30.18 in 10.0 mi West 11.5 mph 20.7 mph N/A   Clear
1:50 PM 28.4 °F 16.6 °F 12.2 °F 51% 30.15 in 10.0 mi WNW 16.1 mph - N/A   Clear
2:50 PM 30.2 °F 21.9 °F 12.2 °F 47% 30.16 in 10.0 mi West 9.2 mph - N/A   Clear
3:50 PM 30.2 °F 20.2 °F 12.2 °F 47% 30.16 in 10.0 mi West 12.7 mph 20.7 mph N/A   Clear
4:50 PM 28.4 °F 20.4 °F 10.4 °F 47% 30.16 in 10.0 mi WSW 8.1 mph - N/A   Mostly Cloudy
5:50 PM 26.6 °F 18.2 °F 12.2 °F 55% 30.18 in 10.0 mi WNW 8.1 mph - N/A   Overcast
6:50 PM 24.8 °F 16.1 °F 14.0 °F 64% 30.19 in 10.0 mi WNW 8.1 mph - N/A   Scattered Clouds
8:15 PM 22.8 °F 16.7 °F 11.1 °F 61% 30.18 in 10.0 mi NW 4.6 mph - N/A   Clear
8:35 PM 22.3 °F 16.1 °F 11.1 °F 62% 30.18 in 10.0 mi NW 4.6 mph - N/A   Clear
8:55 PM 22.1 °F - 11.1 °F 63% 30.18 in 10.0 mi North - - N/A   Clear
9:15 PM 23.0 °F - 10.4 °F 59% 30.17 in 10.0 mi North - - N/A   Clear
9:35 PM 23.4 °F - 10.0 °F 57% 30.17 in 10.0 mi North - - N/A   Scattered Clouds
9:55 PM 23.5 °F - 9.3 °F 55% 30.17 in 10.0 mi North - - N/A   Mostly Cloudy
10:15 PM 23.5 °F - 9.3 °F 55% 30.16 in 10.0 mi North - - N/A   Overcast
10:35 PM 23.7 °F - 7.7 °F 51% 30.16 in 10.0 mi North - - N/A   Mostly Cloudy
10:55 PM 23.0 °F - 7.5 °F 52% 30.16 in 10.0 mi North - - N/A   Mostly Cloudy
11:15 PM 22.8 °F - 7.7 °F 52% 30.16 in 10.0 mi North - - N/A   Mostly Cloudy
11:35 PM 23.0 °F - 8.2 °F 53% 30.16 in 10.0 mi North - - N/A   Overcast
11:55 PM 23.4 °F - 8.1 °F 52% 30.16 in 10.0 mi North - - N/A   Overcast